GW5098 Weather Reports


time (UTC)temp
F
wind
direction
speed
knots
gust
knots
rain 1hr
in
rain 24hr
in
rain mn
in
humidity
%
barometer
mb
20260502231829 57 225 0.0 1.7 0.00 0.13 0.06 97 1014.6
20260502231605 57 256 0.0 2.6 0.00 0.13 0.06 96 1014.8
20260502231057 58 197 1.7 2.6 0.01 0.13 0.06 96 1014.7
20260502230329 58 215 0.9 1.7 0.03 0.13 0.06 96 1014.8
20260502225829 58 230 0.9 0.9 0.08 0.13 0.06 96 1014.6
20260502225329 57 307 0.0 0.9 0.12 0.13 0.06 95 1014.5
20260502224830 57 307 0.0 0.9 0.12 0.13 0.06 95 1014.6
20260502224329 58 307 0.0 0.9 0.13 0.13 0.06 95 1014.7
20260502223834 58 297 0.0 0.9 0.13 0.13 0.06 95 1014.7
20260502223328 58 271 0.0 0.9 0.13 0.13 0.06 95 1014.7
20260502222829 58 270 0.0 2.6 0.13 0.13 0.06 95 1014.6
20260502222328 58 274 0.9 2.6 0.13 0.13 0.06 95 1014.7
20260502221830 58 295 0.9 5.2 0.13 0.13 0.06 95 1014.6
20260502221330 58 220 0.9 5.2 0.13 0.13 0.05 95 1014.3
20260502221111 58 343 0.9 2.6 0.12 0.12 0.04 94 1014.2
20260502220329 58 333 1.7 1.7 0.10 0.10 0.02 93 1015.2
20260502220304 58 306 0.9 2.6 0.05 0.05 0.04 92 1015.6
20260502215557 58 266 0.9 2.6 0.01 0.01 0.01 92 1015.8
20260502214830 58 259 0.9 6.1 0.01 0.01 0.01 91 1015.9
20260502214330 58 259 0.9 6.1 0.00 0.00 0.00 91 1015.8
20260502213831 58 323 1.7 5.2 0.00 0.00 0.00 90 1015.6
20260502213323 59 289 1.7 7.0 0.00 0.00 0.00 89 1015.8
20260502212822 59 269 2.6 7.0 0.00 0.00 0.00 88 1015.7
20260502212320 59 294 1.7 12.2 0.00 0.00 0.00 87 1016.0
20260502211821 60 279 4.3 13.0 0.00 0.00 0.00 87 1015.9
20260502211321 60 272 3.5 15.6 0.00 0.00 0.00 85 1015.9
20260502211042 61 264 5.2 12.2 0.00 0.00 0.00 83 1015.7
20260502210321 63 328 3.5 12.2 0.00 0.00 0.00 79 1015.7
20260502205802 64 253 4.3 7.0 0.00 0.00 0.00 75 1015.6
20260502205301 64 257 0.9 1.7 0.00 0.00 0.00 76 1015.4
20260502204801 64 209 0.9 2.6 0.00 0.00 0.00 76 1014.9
20260502204301 64 205 0.9 2.6 0.00 0.00 0.00 76 1014.7
20260502203800 64 212 0.0 2.6 0.00 0.00 0.00 77 1014.6
20260502203527 64 206 0.0 1.7 0.00 0.00 0.00 77 1014.6
20260502202801 64 222 0.0 2.6 0.00 0.00 0.00 76 1014.7
20260502202304 65 234 0.9 2.6 0.00 0.00 0.00 76 1014.8
20260502202033 65 138 0.9 3.5 0.00 0.00 0.00 75 1014.9
20260502201301 65 222 0.0 3.5 0.00 0.00 0.00 75 1014.8
20260502200801 65 63 0.9 1.7 0.00 0.00 0.00 76 1015.0
20260502200301 65 259 0.0 2.6 0.00 0.00 0.00 76 1015.0
20260502195801 65 203 0.9 2.6 0.00 0.00 0.00 75 1015.2
20260502195304 66 243 0.0 2.6 0.00 0.00 0.00 75 1015.1
20260502194800 66 264 0.0 3.5 0.00 0.00 0.00 75 1015.0
20260502194301 66 173 1.7 7.0 0.00 0.00 0.00 75 1015.2
20260502193757 67 105 2.6 7.8 0.00 0.00 0.00 74 1015.3
20260502193258 67 134 4.3 7.8 0.00 0.00 0.00 74 1015.3
20260502192750 67 144 3.5 6.1 0.00 0.00 0.00 74 1015.4
20260502192249 67 63 4.3 6.1 0.00 0.00 0.00 72 1015.4
20260502191750 68 298 0.0 0.9 0.00 0.00 0.00 70 1015.4
20260502191250 68 270 0.0 0.9 0.00 0.00 0.00 70 1015.2
20260502190749 68 309 0.0 0.9 0.00 0.00 0.00 70 1015.2
20260502190517 68 309 0.0 0.9 0.00 0.00 0.00 69 1015.1
20260502185749 69 310 0.0 0.9 0.00 0.00 0.00 69 1015.1
20260502185248 69 325 0.0 1.7 0.00 0.00 0.00 68 1015.0
20260502184748 69 312 0.0 1.7 0.00 0.00 0.00 68 1014.9
20260502184248 69 303 0.0 2.6 0.00 0.00 0.00 68 1015.1
20260502183752 69 328 0.9 1.7 0.00 0.00 0.00 66 1015.5
20260502183747 69 345 0.9 2.6 0.00 0.00 0.00 67 1015.0
20260502182747 70 287 0.0 1.7 0.00 0.00 0.00 65 1015.3
20260502182249 70 281 0.9 2.6 0.00 0.00 0.00 64 1015.3
20260502181749 71 278 0.0 2.6 0.00 0.00 0.00 63 1015.3
20260502181248 71 285 0.9 2.6 0.00 0.00 0.00 63 1015.3
20260502181012 71 272 0.0 3.5 0.00 0.00 0.00 62 1015.1
20260502180247 71 275 1.7 5.2 0.00 0.00 0.00 62 1015.2
20260502170511 75 279 0.0 0.9 0.00 0.00 0.00 53 1015.4
20260502164230 75 304 0.0 0.9 0.00 0.00 0.00 52 1015.5
20260502163729 75 304 0.0 1.7 0.00 0.00 0.00 52 1015.8
20260502163229 75 251 0.0 1.7 0.00 0.00 0.00 51 1016.0
20260502162729 75 235 0.0 1.7 0.00 0.00 0.00 50 1016.0
20260502162229 75 230 0.9 1.7 0.00 0.00 0.00 50 1015.8
20260502161729 75 163 1.7 1.7 0.00 0.00 0.00 50 1015.8
20260502161229 75 215 0.9 1.7 0.00 0.00 0.00 51 1016.1
20260502160729 75 266 1.7 2.6 0.00 0.00 0.00 51 1016.1
20260502160450 75 270 0.9 2.6 0.00 0.00 0.00 50 1016.1
20260502151714 78 191 1.7 3.5 0.00 0.00 0.00 48 1016.8
20260502151213 77 215 0.9 2.6 0.00 0.00 0.00 49 1016.8
20260502150712 76 262 1.7 3.5 0.00 0.00 0.00 51 1016.8
20260502150214 75 232 2.6 3.5 0.00 0.00 0.00 51 1017.1
20260502130710 75 129 1.7 2.6 0.00 0.00 0.00 53 1018.2
20260502130211 75 277 0.9 5.2 0.00 0.00 0.00 52 1018.5
20260502123431 76 119 2.6 6.1 0.00 0.00 0.00 51 1018.8
20260502122931 76 218 4.3 5.2 0.00 0.00 0.00 52 1018.7
20260502122432 75 263 0.0 7.0 0.00 0.00 0.00 52 1018.6
20260502121709 74 221 4.3 7.0 0.00 0.00 0.00 52 1018.9
20260502121209 74 242 0.9 5.2 0.00 0.00 0.00 53 1019.0
20260502120709 74 161 1.7 5.2 0.00 0.00 0.00 53 1019.0
20260502120209 75 252 1.7 7.0 0.00 0.00 0.00 54 1018.9
20260502115708 73 213 1.7 7.8 0.00 0.00 0.00 56 1019.0
20260502115210 74 151 3.5 6.1 0.00 0.00 0.00 54 1019.2
20260502114710 74 261 0.0 6.1 0.00 0.00 0.00 55 1019.0
20260502114208 74 314 2.6 6.1 0.00 0.00 0.00 55 1019.3
20260502113710 74 290 1.7 6.1 0.00 0.00 0.00 55 1019.1
20260502113209 73 270 1.7 6.1 0.00 0.00 0.00 55 1019.2
20260502112710 73 245 2.6 7.0 0.00 0.00 0.00 55 1019.1
20260502112439 74 164 4.3 7.0 0.00 0.00 0.00 54 1019.3
20260502111708 74 245 0.0 5.2 0.00 0.00 0.00 53 1019.3
20260502111207 73 219 0.9 6.1 0.00 0.00 0.00 55 1019.4
20260502110709 73 229 2.6 7.0 0.00 0.00 0.00 54 1019.2
20260502110208 73 197 1.7 7.0 0.00 0.00 0.00 55 1019.2
20260502105707 72 138 1.7 7.0 0.00 0.00 0.00 56 1019.5
20260502105206 74 159 2.6 5.2 0.00 0.00 0.00 53 1019.5
20260502104707 74 150 1.7 5.2 0.00 0.00 0.00 53 1019.5
20260502104205 73 194 2.6 7.0 0.00 0.00 0.00 54 1019.6
20260502103701 73 235 4.3 7.0 0.00 0.00 0.00 55 1019.5
20260502103201 73 196 1.7 6.1 0.00 0.00 0.00 56 1019.5
20260502102701 73 269 2.6 5.2 0.00 0.00 0.00 54 1019.5
20260502102206 72 285 2.6 6.1 0.00 0.00 0.00 55 1019.7
20260502101705 73 281 3.5 6.1 0.00 0.00 0.00 54 1019.6
20260502101201 72 232 2.6 5.2 0.00 0.00 0.00 56 1019.9
20260502100924 72 215 2.6 5.2 0.00 0.00 0.00 55 1019.9
20260502100429 72 178 0.9 6.1 0.00 0.00 0.00 56 1019.8
20260502091134 70 126 2.6 6.1 0.00 0.00 0.00 55 1020.0
20260502090633 70 241 0.0 6.1 0.00 0.00 0.00 53 1020.0
20260502090133 70 226 0.9 2.6 0.00 0.00 0.00 54 1020.1
20260502071136 61 213 0.9 3.5 0.00 0.00 0.00 56 1020.2
20260502070630 61 267 0.9 5.2 0.00 0.00 0.00 56 1020.5
20260502070352 60 167 1.7 5.2 0.00 0.00 0.00 56 1020.4
20260502065631 59 158 0.9 2.6 0.00 0.00 0.00 59 1020.5
20260502065130 58 176 0.0 1.7 0.00 0.00 0.00 61 1020.5
20260502064630 57 230 0.9 1.7 0.00 0.00 0.00 62 1020.5
20260502064130 57 212 0.0 1.7 0.00 0.00 0.00 61 1020.4
20260502063629 57 191 0.9 1.7 0.00 0.00 0.00 62 1020.4
20260502063130 57 239 0.0 1.7 0.00 0.00 0.00 62 1020.3
20260502062629 57 242 0.0 1.7 0.00 0.00 0.00 60 1020.0
20260502062131 57 268 0.0 1.7 0.00 0.00 0.00 62 1020.1
20260502062123 57 271 0.0 2.6 0.00 0.00 0.00 60 1020.1
20260502061130 57 236 0.0 2.6 0.00 0.00 0.00 58 1020.4
20260502060630 57 265 0.0 2.6 0.00 0.00 0.00 57 1020.3
20260502060130 57 224 0.9 2.6 0.00 0.00 0.00 57 1020.1
20260502060121 57 228 0.0 2.6 0.00 0.00 0.00 57 1020.1
20260502055130 57 230 0.0 2.6 0.00 0.00 0.00 56 1020.3
20260502054630 57 259 0.9 2.6 0.00 0.00 0.00 56 1020.2
20260502054129 57 182 1.7 2.6 0.00 0.00 0.00 55 1020.1
20260502053857 57 317 0.0 1.7 0.00 0.00 0.00 56 1020.1
20260502053353 56 227 0.0 2.6 0.00 0.00 0.00 55 1020.1
20260502052628 56 211 0.9 5.2 0.00 0.00 0.00 55 1020.1
20260502052129 56 180 1.7 5.2 0.00 0.00 0.00 55 1020.2
20260502051629 56 189 0.9 3.5 0.00 0.00 0.00 55 1020.1
20260502051129 55 189 0.9 2.6 0.00 0.00 0.00 55 1020.1
20260502050629 55 226 0.9 2.6 0.00 0.00 0.00 57 1020.1
20260502050129 54 225 0.0 2.6 0.00 0.00 0.00 57 1020.0
20260502045630 54 211 0.0 2.6 0.00 0.00 0.00 58 1020.0
20260502045359 54 205 0.9 1.7 0.00 0.00 0.00 58 1020.1
20260502044629 53 229 0.0 1.7 0.00 0.00 0.00 59 1019.9
20260502044129 53 198 1.7 1.7 0.00 0.00 0.00 58 1019.8
20260502043628 53 206 0.9 1.7 0.00 0.00 0.00 59 1019.9
20260502043129 53 232 0.9 1.7 0.00 0.00 0.00 59 1019.9
20260502042630 53 248 0.0 2.6 0.00 0.00 0.00 60 1020.0
20260502042133 52 214 0.0 2.6 0.00 0.00 0.00 60 1019.8
20260502041629 52 223 0.0 2.6 0.00 0.00 0.00 61 1019.9
20260502041129 52 200 0.9 2.6 0.00 0.00 0.00 61 1020.0
20260502040629 52 220 0.0 1.7 0.00 0.00 0.00 61 1020.1
20260502040134 51 222 0.0 1.7 0.00 0.00 0.00 63 1019.9
20260502035632 51 214 0.9 1.7 0.00 0.00 0.00 62 1020.1
20260502035131 51 208 0.0 1.7 0.00 0.00 0.00 64 1020.1
20260502034630 50 218 0.0 1.7 0.00 0.00 0.00 65 1020.1
20260502034130 50 207 0.9 1.7 0.00 0.00 0.00 66 1020.4
20260502033630 50 227 0.0 0.9 0.00 0.00 0.00 66 1020.5
20260502033129 50 228 0.0 0.9 0.00 0.00 0.00 67 1020.3
20260502032629 49 228 0.0 0.0 0.00 0.00 0.00 67 1020.3
20260502032129 50 228 0.0 0.0 0.00 0.00 0.00 67 1020.3
20260502031628 50 228 0.0 0.0 0.00 0.00 0.00 67 1020.3
20260502031129 50 228 0.0 0.9 0.00 0.00 0.00 66 1020.3
20260502031113 49 228 0.0 0.9 0.00 0.00 0.00 67 1020.1
20260502030348 48 231 0.0 0.0 0.00 0.00 0.00 70 1020.4
20260502025625 48 231 0.0 0.0 0.00 0.00 0.00 70 1020.4
20260502025124 48 231 0.0 0.0 0.00 0.00 0.00 69 1020.3
20260502024625 49 231 0.0 0.0 0.00 0.00 0.00 68 1020.5
20260502024607 49 231 0.0 0.0 0.00 0.00 0.00 67 1020.6
20260502023602 50 231 0.0 0.0 0.00 0.00 0.00 67 1020.6
20260502023101 50 231 0.0 0.0 0.00 0.00 0.00 66 1020.5
20260502022601 50 231 0.0 0.0 0.00 0.00 0.00 67 1020.5
20260502022100 50 231 0.0 0.0 0.00 0.00 0.00 66 1020.6
20260502021600 50 231 0.0 0.0 0.00 0.00 0.00 66 1020.7
20260502021100 50 231 0.0 0.0 0.00 0.00 0.00 64 1020.7
20260502020602 51 231 0.0 0.0 0.00 0.00 0.00 63 1020.8
20260502020327 51 231 0.0 0.0 0.00 0.00 0.00 61 1020.9
20260502015602 52 231 0.0 0.9 0.00 0.00 0.00 60 1020.9
20260502015101 53 231 0.0 0.9 0.00 0.00 0.00 58 1020.9
20260502014601 53 234 0.0 0.9 0.00 0.00 0.00 58 1021.1
20260502014101 54 235 0.0 0.9 0.00 0.00 0.00 56 1021.1
20260502014055 54 214 0.0 1.7 0.00 0.00 0.00 56 1021.0
20260502013104 54 215 0.0 1.7 0.00 0.00 0.00 55 1020.9
20260502012602 55 213 0.0 1.7 0.00 0.00 0.00 55 1021.2
20260502012102 55 165 1.7 1.7 0.00 0.00 0.00 54 1021.1
20260502011829 55 152 1.7 1.7 0.00 0.00 0.00 54 1021.1
20260502011101 55 214 0.0 1.7 0.00 0.00 0.00 54 1021.1
20260502010601 55 192 0.9 1.7 0.00 0.00 0.00 54 1021.2
20260502010101 55 184 1.7 1.7 0.00 0.00 0.00 54 1021.1
20260502005601 55 194 0.9 1.7 0.00 0.00 0.00 53 1021.3
20260502005101 56 212 0.9 2.6 0.00 0.00 0.00 53 1021.1
20260502004832 56 134 1.7 2.6 0.00 0.00 0.00 52 1021.2
20260502004101 56 201 0.9 2.6 0.00 0.00 0.00 52 1021.4
20260502003601 56 190 0.9 3.5 0.00 0.00 0.00 52 1021.3
20260502003101 56 179 3.5 3.5 0.00 0.00 0.00 52 1021.5
20260502002827 56 146 0.9 2.6 0.00 0.00 0.00 52 1021.4
20260502002101 56 223 0.0 2.6 0.00 0.00 0.00 52 1021.5
20260502001836 56 189 1.7 3.5 0.00 0.00 0.00 53 1021.4
20260502001102 57 154 1.7 3.5 0.00 0.00 0.00 52 1021.7
20260502000826 56 186 0.9 2.6 0.00 0.00 0.00 53 1021.6
20260501235600 57 195 0.9 3.5 0.00 0.00 0.00 52 1021.8
20260501235100 57 160 1.7 2.6 0.00 0.00 0.00 52 1021.6
20260501234604 57 185 0.9 3.5 0.00 0.00 0.00 53 1021.8
20260501234336 57 139 1.7 3.5 0.00 0.00 0.00 53 1021.8
20260501233551 57 161 1.7 2.6 0.00 0.00 0.00 53 1021.9
20260501233313 57 193 0.9 2.6 0.00 0.00 0.00 53 1021.8
20260501232550 57 196 0.9 1.7 0.00 0.00 0.00 53 1022.1